OpenBCM V1.13 (Linux)

Packet Radio Mailbox

DB0FHN

[JN59NK Nuernberg]

 Login: GUEST





  
F1EBE  > KEPLER   17.02.03 19:48l 107 Lines 5485 Bytes #999 (0) @ EU
BID : 22124_F8KOH
Read: DB0FHN GUEST
Subj: 2L  Satell Amat 047.jours
Path: DB0FHN<DB0RGB<DB0FSG<DB0ZKA<DB0KFB<DB0SIP<OE9XPI<DB0CZ<DB0GE<LX0PAC<
      F6KWP<F6KIF<F1HCI<F6KBF<F1FPP<F8KGK<F8KAE<F8KOH
Sent: 030217/0906Z @:F8KOH.FNOR.FRA.EU #:22124 [Vernon] FBB7.00i $:22124_F8KOH
From: F1EBE@F8KOH.FNOR.FRA.EU
To  : KEPLER@EU




AO-7                    
1 07530U 74089B   03044.66387538 -.00000029  00000-0  10000-3 0  1493
2 07530 101.7611  92.4958 0012295  87.8730 272.3745 12.53564338292578
AO-10                   
1 14129U 83058B   03041.63642645  .00000117  00000-0  10000-3 0  9167
2 14129  25.9157 165.6251 6028355 326.7167   6.8087  2.05866882119909
UO-11                   
1 14781U 84021B   03046.56476696  .00001930  00000-0  27487-3 0   713
2 14781  98.1172  20.4637 0008378 216.2099 143.8545 14.77990856 15796
UO-14                   
1 20437U 90005B   03047.12179274  .00000168  00000-0  78969-4 0  1650
2 20437  98.2738  90.8532 0009997 206.2661 153.8015 14.31237376682140
AO-16                   
1 20439U 90005D   03046.71770837  .00000187  00000-0  86107-4 0  8525
2 20439  98.3186 102.1352 0010233 214.4984 145.5534 14.31471010682128
DO-17                   
1 20440U 90005E   03046.21798503  .00000200  00000-0  90692-4 0  7273
2 20440  98.3378 105.5413 0010156 216.6619 143.3871 14.31748603682126
WO-18                   
1 20441U 90005F   03046.20940688  .00000182  00000-0  84136-4 0   128
2 20441  98.3336 104.7456 0011037 215.2227 144.8227 14.31552521682109
LO-19                   
1 20442U 90005G   03046.74730463  .00000211  00000-0  94575-4 0  9643
2 20442  98.3482 108.2814 0011177 214.1926 145.8530 14.31715981682231
FO-20                   
1 20480U 90013C   03044.94634508  .00000021  00000-0  11862-3 0  4648
2 20480  99.0470   8.5588 0540693  14.3469 347.2321 12.83330166609924
RS-12/13                
1 21089U 91007A   03044.88149015  .00000075  00000-0  63542-4 0  4906
2 21089  82.9234 184.8530 0028080 301.7096  58.1322 13.74403715603143
UO-22                   
1 21575U 91050B   03046.51820133  .00000388  00000-0  13852-3 0  7260
2 21575  98.1405  38.7936 0008056 136.3461 223.8366 14.39152793607847
KO-23                   
1 22077U 92052B   03044.90301753 -.00000037  00000-0  10000-3 0  1677
2 22077  66.0871 135.5003 0015530 274.9907  84.9338 12.86408271493704
AO-27                   
1 22825U 93061C   03046.88163416  .00000167  00000-0  82444-4 0  4870
2 22825  98.2749  76.7153 0007471 267.4616  92.5711 14.28942394489495
IO-26                   
1 22826U 93061D   03046.63228510  .00000185  00000-0  88977-4 0  3091
2 22826  98.2763  77.5934 0008153 270.9638  89.0610 14.29165101489504
KO-25                   
1 22828U 93061F   03047.10327018  .00000159  00000-0  78318-4 0  4268
2 22828  98.2715  78.3037 0009081 244.3124 115.7121 14.29507500457773
POSAT                   
1 22829U 93061G   03047.11291079  .00000262  00000-0  11802-3 0  4514
2 22829  98.2729  78.9174 0008893 245.6487 114.3767 14.29767351489704
RS-15                   
1 23439U 94085A   03044.94768411 -.00000042  00000-0  12993-4 0  6888
2 23439  64.8154  48.9543 0146897 116.1058 245.5064 11.27547626335076
FO-29                   
1 24278U 96046B   03045.84364011  .00000040  00000-0  78812-4 0  5605
2 24278  98.5331 197.5680 0350149 226.0612 131.1156 13.52872359320807
TO-31                   
1 25396U 98043C   03047.21630238 -.00000043  00000-0  00000+0 0  8231
2 25396  98.6267 124.3665 0003441 129.7643 230.3840 14.23510523239196
GO-32                   
1 25397U 98043D   03044.91677917  .00000060  00000-0  45693-4 0  1324
2 25397  98.6227 121.0012 0001848 134.6084 225.5246 14.22958357238832
SO-33                   
1 25509U 98061B   03046.71357594  .00001259  00000-0  23867-3 0  7803
2 25509  31.4297 169.2968 0358483 277.9460  78.0607 14.27432851224908
PO-34                   
1 25520U 98064B   03046.92234715  .00003417  00000-0  17369-3 0  6381
2 25520  28.4593 241.4854 0005372 319.6173  40.4028 15.13876265237185
ISS         
1 25544U 98067A   03047.38855324  .00028353  00000-0  36916-3 0  6954
2 25544  51.6344 266.9312 0012360 208.2663 150.2742 15.58431187242151
UO-36                   
1 25693U 99021A   03047.11162965  .00000698  00000-0  11972-3 0  7074
2 25693  64.5603  18.3058 0020155 315.7904  44.1587 14.76388008205896
OO-38                   
1 26063U 00004C   03044.67618573  .00000177  00000-0  81699-4 0  7209
2 26063 100.2136  98.3687 0036951 301.1050  58.6501 14.35479375159689
SO-41                   
1 26545U 00057A   03044.67729753  .00001672  00000-0  24009-3 0  4125
2 26545  64.5589  46.9563 0052396 239.6404 119.9527 14.78971219128506
MO-46                   
1 26548U 00057D   03044.43732435  .00002139  00000-0  28733-3 0  4175
2 26548  64.5580  40.6409 0045785 238.6835 120.9788 14.81255826128617
SO-42                   
1 26549U 00057E   03044.98052980  .00001415  00000-0  21056-3 0  6928
2 26549  64.5517  50.1147 0056936 239.5877 119.9601 14.77908363128460
AO-40                   
1 26609U 00072B   03046.24037137 -.00000118  00000-0  10000-3 0  3115
2 26609   8.0800  64.6767 7942000 144.0329 312.8612  1.25596569 10543
NO-44                   
1 26931U 01043C   03044.97623006  .00000199  00000-0  11090-3 0  4182
2 26931  67.0476 267.4380 0005010 264.6710  95.3823 14.29112994 71690
NO-45                   
1 26932U 01043D   03044.95484926  .00000117  00000-0  78466-4 0  4166
2 26932  67.0552 267.2001 0005104 240.5858 119.4726 14.29292806 71718
AO-49                   
1 27605U 02058A   03044.89029666  .00000515  00000-0  10396-3 0   570
2 27605  64.5524 211.4435 0034873 115.2981 245.1748 14.71353621  8125
SO-50                   
1 27607U 02058C   03044.94813746  .00001411  00000-0  25472-3 0   542
2 27607  64.5507 211.6757 0037665 112.3657 248.1439 14.69891000  8122



Read previous mail | Read next mail


 11.09.2026 09:14:39lGo back Go up